Content
SEND FEEDBACK

Daily
Averages
Monthly
Summary
United States of America

RICHARDSON, TEXAS


Home > North America > United States > Texas
Elevation: 630 feet     Latitude: 32 57N     Longitude: 096 44W

WEATHER
 
SELECT A DAY
Number of Records: 188,584;   Date Range: 1/1/95 - 8/28/14
 
SHARE

PRINT THIS DATA

[ ← Previous Day ]
WEATHER ALMANAC - JANUARY 31, 2013
[ Next Day → ]
[ °C ]   °F
Weather ElementAverageHighLow
Temperature53.3 °F70 °F (3:53 pm)39.9 °F (5:53 am)
Dewpoint22.4 °F27 °F (7:53 pm)18 °F (1:53 pm)
Humidity33.4 %51 % (11:53 pm)14 % (3:53 pm)
Barometer30.17 in30.33 in (11:53 pm)30.08 in (3:53 pm)
Wind Speed7.5 mph23 mph (9:53 pm)
Wind Gust32.2 mph (9:53 pm)
Weather ElementAverage
Visibility10 mi
Wind DirectionSSE (144.8 °)

Weather ElementTotal
Precipitation---
Heating Degree Days10.1 (Base 65)
Growing Degree Days5 (Base 50)
Averaged from 23 records on January 31, 2013
WEATHER CONDITIONS BREAKOUT
WIND DIRECTION BREAKOUT
WEATHER BY HOUR - JANUARY 31, 2013
[ °C ]   °F
Local TimeTemperatureDewpointHumidityBarometerVisibilityWind DirectionWind SpeedGust SpeedPrecipitationEventsConditions
1:53 AM42.1 °F21.9 °F45 %30.14 in10.0 miSSW (210°)6.9 mphClear
2:53 AM42.1 °F21.0 °F43 %30.15 in10.0 miSSW (200°)4.6 mphClear
3:53 AM42.1 °F23.0 °F47 %30.14 in10.0 miSSW (210°)5.8 mphClear
4:53 AM42.1 °F23.0 °F47 %30.14 in10.0 miSW (230°)4.6 mphClear
5:53 AM39.9 °F21.0 °F47 %30.14 in10.0 miCalmClear
6:53 AM39.9 °F21.9 °F49 %30.15 in10.0 miSW (230°)3.5 mphClear
7:53 AM41.0 °F23.0 °F49 %30.17 in10.0 miCalmClear
8:53 AM44.1 °F25.0 °F47 %30.19 in10.0 miSouth (180°)6.9 mphClear
9:53 AM50.0 °F21.0 °F32 %30.19 in10.0 miSouth (180°)8.1 mphClear
10:53 AM55.0 °F26.1 °F33 %30.20 in10.0 miSSW (200°)5.8 mphClear
11:53 AM61.0 °F21.9 °F22 %30.18 in10.0 miSW (220°)9.2 mphPartly Cloudy
12:53 PM64.0 °F21.0 °F19 %30.15 in10.0 miSouth (180°)8.1 mph17.3 mphPartly Cloudy
1:53 PM66.9 °F18.0 °F15 %30.10 in10.0 miSW (230°)11.5 mph19.6 mphPartly Cloudy
2:53 PM68.0 °F18.0 °F15 %30.09 in10.0 miSW (220°)9.2 mph21.9 mphScattered Clouds
3:53 PM70.0 °F19.0 °F14 %30.08 in10.0 miWSW (240°)12.7 mph23.0 mphScattered Clouds
4:53 PM69.1 °F19.0 °F15 %30.09 in10.0 miWSW (240°)8.1 mphMostly Cloudy
5:53 PM66.9 °F19.0 °F16 %30.12 in10.0 miWSW (240°)5.8 mphMostly Cloudy
6:53 PM64.9 °F19.9 °F18 %30.14 in10.0 miCalmMostly Cloudy
7:53 PM57.0 °F27.0 °F32 %30.18 in10.0 miCalmMostly Cloudy
8:53 PM57.9 °F26.1 °F30 %30.22 in10.0 miNorth (10°)8.1 mphMostly Cloudy
9:53 PM52.0 °F26.1 °F37 %30.26 in10.0 miNE (40°)23.0 mph32.2 mphMostly Cloudy
10:53 PM46.9 °F27.0 °F46 %30.31 in10.0 miNE (40°)19.6 mph23.0 mphMostly Cloudy
11:53 PM44.1 °F27.0 °F51 %30.33 in10.0 miNNE (30°)10.4 mphMostly Cloudy
Hourly data recorded from KDAL, located miles away from Richardson, Texas







STORIES FROM OUR PARTNERS